Showing default

GITAI-SC1, 62388

Orbit data source: Space-Track

GITAI-SC1, 62388 is a payload satellite owned by GITAI USA (US) in LEO that was launched on Sat, 21 Dec 2024 UTC via an FALCON 9 launch vehicle from the Air Force Western Test Range (AFWTR). Payload-class satellites include a variety of spacecraft equipped with specific instruments for various scientific and technological missions. These include communications satellites like Starlink; space stations such as the ISS; scientific satellites like the Hubble; Earth observation satellites from companies like Planet Labs, Umbra, and HawkEye 360; GPS; miniature CubeSats for education and research; and military/defense satellites.

Loading next visibility...
Identifier
62388, 2024-247M
Orbit
LEO
Country
Flag of USUS
Related business
Manufacturer
GITAI USA
Mission
Operational Commercial Technology
Bus & Motor
CUBESAT 16U, Unknown motor
Mass
20 kg wet, 20 kg dry
Launch date (UTC)
2024-12-21 (1 year ago)
Launch vehicle
FALCON 9
Launch site
Air Force Western Test Range (AFWTR)
Object type
Payload
Rocket body
Debris
Shape & HBR
Box, 0.2 m
Radar Cross Section
0.100 m², Medium (>0.1 m² and < 1m²)

Expand to show TLE details & history
Last TLE update: 19 hours ago

TLE from 19 hours ago
0 GITAI-SC1
1 62388U 24247M   25340.86340049  .00009354  00000-0  44183-3 0  9998
2 62388  45.0015 269.9748 0000835 293.8309  66.2484 15.19749372 53465
Epoch: 2025-12-06T20:43Z
TLE epoch observation values (Epoch: 2025-12-06T20:43:17.802Z)
Latitude
0.00003°
Longitude
-116.73438°
Altitude
506.365 km
Speed
7.613 km/s
True Right ascension
17h 59m 53s
True Declination
0° 00' 00"
Sunlit
Object was in daylight at epoch
Visualization orbit readout
Latitude
Unknown
Longitude
Unknown
Altitude
Unknown
Speed
Unknown
Apparent Right ascension
Unknown
Apparent Declination
Unknown
Sunlit
N/A
Visualization observer readout
Local Sidereal Time
13:33:07
Azimuth
Unknown
Elevation
Unknown
Doppler factor
Unknown
Orbital elements
Apogee altitude
508.776 km
Perigee altitude
507.626 km
Semi-major axis
6,886.338 km
Eccentricity
0.00008
Inclination
45.0015°
RAAN
269.9748°
Arg. of periapsis
293.8309°
True anomaly
66.25716°
Mean anomaly
66.2484°
Eccentric anomaly
66.25278°
Mean motion
3.79805 °/min
Orbital period
94.79 mins
BSTAR
0.00044183
Loading maneuver chart data...
Computing Atmospheric mass density...
Loading historical data...
Loading historical data...
Loading historical data...
Loading historical data...
Loading historical data...
Loading historical data...
Loading historical data...

Documentation

Showing up to 5 results
|